Нижний Пяндж

Таджикистан     37˚12′47″N   68˚34′48″E
темп.,
°C
ветер,
м/с
пор.,
м/с
влажн.,
%
обл.,
%
осадки,
мм/ч
давл.,
гПа
погр.,
м
5 декабря, сб
сб523:00+5˚юз015094 0.0 103122
02:00+4˚св125958 0.0 103024
05:00+4˚ссв237074 0.0 102942
08:00+4˚с237324 0.0 102834
11:00+7˚св125414 0.0 1027439
14:00+9˚сз01500 0.0 1024718
17:00+9˚юз22540 0.0 1025123
20:00+7˚юз23520 0.0 102740
6 декабря, вс
вс623:00+6˚юз11536 0.0 102822
02:00+6˚св015485 0.0 102822
05:00+5˚ссв226390 0.0 102822
08:00+5˚всв016792 0.0 102922
11:00+8˚всв114865 0.0 1027385
14:00+10˚св23540 0.0 1024701
17:00+10˚ююз116133 0.0 102332
20:00+8˚ююз0166100 0.0 102422
7 декабря, пн
пн723:00+8˚св1265100 0.0 102222
02:00+8˚ссв2268100 0.0 102025
05:00+8˚юз2268100 0.0 101923
08:00+8˚юз1266100 0.0 102122
11:00+10˚зсз0161100 0.1 1023266
14:00+9˚сз2271100 0.3 1023333
17:00+8˚з2282100 0.8 1024220
20:00+7˚з2280100 0.3 1025176
8 декабря, вт
вт823:00+7˚юз3379100 0.4 1025283
02:00+6˚зюз2288100 2.3 1026186
05:00+6˚зюз2388100 3.9 1026251
08:00+5˚зюз3484100 1.0 1028267
11:00+5˚зюз3474100 1.0 1030381
14:00+5˚з3379100 0.1 1031343
17:00+3˚зюз3387100 1.2 1032245
20:00+3˚зюз2288100 0.6 1033204
9 декабря, ср
ср923:00+3˚юз2288100 1.1 1033232
02:00+3˚ююз2288100 0.0 1032205
05:00+4˚зсз0187100 0.0 1031175
08:00+4˚ю1185100 0.0 1031179
11:00+5˚ююз1179100 0.0 1029322
14:00+8˚юз2269100 0.0 1027509
17:00+8˚юз3472100 0.0 1027303
20:00+6˚юз3479100 0.0 1028122